Weather History for KVGT - January, 2013

Change the Weather History Date:

Tuesday, January 22, 2013

  Actual Average Record
Temperature  
Mean Temperature 50 °F -  
Max Temperature 64 °F 59 °F 69 °F (2009)
Min Temperature 36 °F 34 °F 15 °F (1961)
Degree Days  
Heating Degree Days 15    
Moisture  
Dew Point 12 °F    
Average Humidity 23    
Maximum Humidity 36    
Minimum Humidity 12    
Precipitation  
Precipitation 0.00 in - - ()
Sea Level Pressure  
Sea Level Pressure 30.27 in    
Wind  
Wind Speed 4 mph (NW)    
Max Wind Speed 7 mph    
Max Gust Speed -    
Visibility 10 miles    
Events      
Averages and records for this station are not official NWS values.
T = Trace of Precipitation, MM = Missing Value Source: NWS Daily Summary

Daily Weather History Graph

Daily Weather History Graph

Search for Another Location

Airport or City:

Trip Planner

Search our weather history database for the weather conditions in past years. The results will help you decide how hot, cold, wet, or windy it might be!

Date:

Astronomy

Jan. 22, 2013 Rise Set
Actual Time 6:48 AM PST 4:57 PM PST
Civil Twilight 6:20 AM PST 5:24 PM PST
Nautical Twilight 5:49 AM PST 5:55 PM PST
Astronomical Twilight 5:18 AM PST 6:26 PM PST
Moon 1:24 PM PST (1/22) 3:12 AM PST (1/22)
Length of Visible Light 11h 04m
Length of Day
10h 09m
Waxing Gibbous, 83% of the Moon is Illuminated
Jan 22
Waxing Gibbous
Jan 26
Full
Feb 3
Last Quarter
Feb 9
New
Feb 17
First Quarter

Hourly Weather History & Observations

Time (PST) Temp. Windchill Dew Point Humidity Pressure Visibility Wind Dir Wind Speed Gust Speed Precip Events Conditions
12:53 AM 43.0 °F 40.3 °F 9.0 °F 25% 30.27 in 10.0 mi NW 4.6 mph - N/A   Clear
1:53 AM 41.0 °F 36.4 °F 8.1 °F 26% 30.29 in 10.0 mi NW 6.9 mph - N/A   Clear
2:53 AM 42.1 °F 38.4 °F 9.0 °F 26% 30.30 in 10.0 mi WNW 5.8 mph - N/A   Clear
3:53 AM 42.1 °F 37.7 °F 9.0 °F 26% 30.29 in 10.0 mi NNW 6.9 mph - N/A   Clear
4:53 AM 41.0 °F 39.0 °F 9.0 °F 27% 30.28 in 10.0 mi West 3.5 mph - N/A   Clear
5:53 AM 37.0 °F 33.3 °F 10.0 °F 33% 30.30 in 10.0 mi West 4.6 mph - N/A   Clear
6:53 AM 36.0 °F - 10.9 °F 36% 30.31 in 10.0 mi Calm Calm - N/A   Clear
7:53 AM 41.0 °F - 10.9 °F 29% 30.32 in 10.0 mi Calm Calm - N/A   Clear
8:53 AM 50.0 °F - 12.9 °F 23% 30.31 in 10.0 mi ENE 3.5 mph - N/A   Clear
9:53 AM 53.1 °F - 12.0 °F 20% 30.33 in 10.0 mi Calm Calm - N/A   Clear
10:53 AM 57.0 °F - 12.0 °F 17% 30.32 in 10.0 mi NW 4.6 mph - N/A   Clear
11:53 AM 59.0 °F - 12.0 °F 16% 30.28 in 10.0 mi Calm Calm - N/A   Clear
12:53 PM 62.1 °F - 10.9 °F 13% 30.25 in 10.0 mi Calm Calm - N/A   Clear
1:53 PM 63.0 °F - 12.0 °F 14% 30.23 in 10.0 mi Calm Calm - N/A   Clear
2:53 PM 64.0 °F - 10.0 °F 12% 30.22 in 10.0 mi SE 3.5 mph - N/A   Clear
3:53 PM 63.0 °F - 10.0 °F 13% 30.21 in 10.0 mi SSE 3.5 mph - N/A   Clear
4:53 PM 61.0 °F - 10.0 °F 13% 30.22 in 10.0 mi Calm Calm - N/A   Clear
5:53 PM 57.0 °F - 10.9 °F 16% 30.24 in 10.0 mi Calm Calm - N/A   Clear
6:53 PM 52.0 °F - 14.0 °F 22% 30.25 in 10.0 mi Calm Calm - N/A   Clear
7:53 PM 48.9 °F - 15.1 °F 26% 30.25 in 10.0 mi NW 5.8 mph - N/A   Clear
8:53 PM 48.9 °F - 15.1 °F 26% 30.25 in 10.0 mi WNW 5.8 mph - N/A   Clear
9:53 PM 44.1 °F 42.5 °F 15.1 °F 31% 30.26 in 10.0 mi North 3.5 mph - N/A   Clear
10:53 PM 45.0 °F 43.5 °F 16.0 °F 31% 30.27 in 10.0 mi North 3.5 mph - N/A   Clear
11:53 PM 43.0 °F - 14.0 °F 31% 30.26 in 10.0 mi Calm Calm - N/A   Clear